Flag for Poland Weather past 2 weeks in Szczecin, Poland

Now
34 °F

Partly cloudy.


Feels Like: 25 °F
Forecast: 32 / 36 °F
Wind: 13 mph from South

Location: Szczecin Airport

Current Time: Jan 29, 2015 at 9:47:33 PM

Latest Report: Jan 29, 2015 at 9:00 PM


Visibility: N/A

Pressure: 28.97 "Hg

Humidity: 87%

Dew point: 30 °F

Location of SzczecinLocation

Historic Weather in Szczecin — Graph

°F

Szczecin temperature yesterday

Maximum temperature yesterday: 39 °F (at 2:30 PM)
Minimum temperature yesterday: 32 °F (at 3:30 AM)
Average temperature yesterday: 36 °F

Past Weeks' High & Low Weather Summary

 TemperatureHumidityPressure
High48 °F (Jan 16, 12:30 AM)100% (Jan 17, 6:00 AM)30.27 "Hg (Jan 17, 6:00 AM)
Low23 °F (Jan 18, 4:30 AM)62% (Jan 16, 12:30 AM)28.97 "Hg (Jan 29, 9:00 PM)
Average34 °F90%29.90 "Hg
* Reported Jan 14 9:00 PM — Jan 29 9:00 PM, Szczecin, Weather by CustomWeather, © 2014

Note: Actual official high and low records may vary slightly from our data, if they occured in-between our weather recording intervals... More about our weather records

Advertising

Szczecin weather history for previous 24 hours

 ConditionsComfort  
Time TempWeatherWind HumidityBarometerVisibility
9:00 PM
Jan 29
34 °FPartly cloudy.13 mph87%28.97 "HgN/A
8:30 PM34 °FPassing clouds.14 mph81%29.00 "HgN/A
8:00 PM34 °FClear.14 mph81%29.00 "Hg10 mi
7:30 PM34 °FPassing clouds.14 mph81%29.00 "HgN/A
7:00 PM34 °FPassing clouds.14 mph87%29.03 "HgN/A
6:30 PM34 °FPassing clouds.14 mph87%29.03 "HgN/A
6:00 PM34 °FPassing clouds.14 mph87%29.03 "HgN/A
5:30 PM36 °FPartly cloudy.14 mph81%29.06 "HgN/A
5:00 PM36 °FLight rain. Partly cloudy.13 mph81%29.06 "Hg5 mi
4:30 PM34 °FLight snow. Broken clouds.10 mph93%29.09 "Hg5 mi
4:00 PM37 °FLight snow. Broken clouds.14 mph65%29.09 "Hg5 mi
3:30 PM37 °FBroken clouds.13 mph65%29.09 "HgN/A
3:00 PM37 °FBroken clouds.12 mph65%29.09 "HgN/A
2:30 PM37 °FBroken clouds.13 mph65%29.12 "HgN/A
2:00 PM37 °FBroken clouds.13 mph65%29.12 "HgN/A
1:30 PM37 °FBroken clouds.15 mph65%29.12 "HgN/A
1:00 PM37 °FBroken clouds.14 mph65%29.15 "HgN/A
12:30 PM37 °FBroken clouds.14 mph70%29.15 "HgN/A
12:00 PM37 °FBroken clouds.16 mph70%29.15 "HgN/A
11:30 AM39 °FPartly sunny.14 mph65%29.18 "HgN/A
11:00 AM37 °FBroken clouds.16 mph70%29.18 "HgN/A
10:30 AM37 °FPassing clouds.16 mph70%29.18 "HgN/A
10:00 AM36 °FPassing clouds.15 mph75%29.18 "HgN/A
9:30 AM36 °FPassing clouds.12 mph75%29.18 "HgN/A
9:00 AM36 °FScattered clouds.9 mph81%29.18 "HgN/A
8:30 AM34 °FPartly sunny.8 mph87%29.18 "HgN/A
8:00 AM36 °FPartly sunny.10 mph81%29.18 "HgN/A
7:30 AM36 °FPassing clouds.9 mph81%29.18 "HgN/A
7:00 AM36 °FPassing clouds.13 mph81%29.18 "HgN/A
6:30 AM36 °FPassing clouds.13 mph81%29.18 "HgN/A
6:00 AM36 °FPassing clouds.13 mph87%29.18 "HgN/A
5:30 AM36 °FPartly cloudy.13 mph81%29.18 "HgN/A
5:00 AM36 °FPartly cloudy.13 mph81%29.18 "HgN/A
4:30 AM36 °FPassing clouds.13 mph87%29.15 "HgN/A
4:00 AM36 °FPassing clouds.10 mph87%29.15 "HgN/A
3:30 AM36 °FPassing clouds.13 mph87%29.18 "HgN/A
3:00 AM36 °FPassing clouds.10 mph93%29.18 "HgN/A
2:30 AM36 °FPassing clouds.10 mph93%29.18 "HgN/A
2:00 AM36 °FPartly cloudy.15 mph93%29.18 "HgN/A
1:30 AM36 °FPartly cloudy.13 mph93%29.18 "HgN/A
1:00 AM36 °FLight rain. Partly cloudy.13 mph93%29.18 "Hg5 mi
12:30 AM36 °FLight rain. Passing clouds.14 mph93%29.18 "Hg4 mi
12:00 AM36 °FLight rain. Partly cloudy.13 mph93%29.18 "Hg4 mi
11:30 PM
Jan 28
37 °FLight rain. Passing clouds.15 mph87%29.21 "Hg4 mi
11:00 PM39 °FLight rain. Passing clouds.15 mph81%29.21 "HgN/A
10:30 PM39 °FLight rain. Passing clouds.17 mph75%29.21 "HgN/A
10:00 PM39 °FLight rain. Passing clouds.15 mph75%29.24 "HgN/A
9:30 PM39 °FLight rain. Passing clouds.13 mph75%29.27 "HgN/A
9:00 PM39 °FPassing clouds.16 mph75%29.30 "HgN/A
Weather by CustomWeather, © 2014

See weather overviewHow to use our weather pages